• In Romania
  • List of Countries
  • For 7 days
  • Water Temperature
  • Satellite Maps
  • Weather Map
  • Weather Widgets
  • user-avatar
    Login

    Hourly Weather Buzau

    Today, 16 October, Tuesday

    Time Temperature Precipitation Wind Pressure Humidity
    00:00 +14°C° 0 mm 2 mps 760 mmHg 45%
    01:00 +14°C° 0 mm 2 mps 760 mmHg 47%
    02:00 +13°C° 0 mm 2 mps 761 mmHg 49%
    03:00 +13°C° 0 mm 2 mps 760 mmHg 50%
    04:00 +13°C° 0 mm 2 mps 760 mmHg 51%
    05:00 +13°C° 0 mm 2 mps 760 mmHg 52%
    06:00 +13°C° 0 mm 2 mps 760 mmHg 51%
    07:00 +14°C° 0 mm 2 mps 760 mmHg 50%
    08:00 +14°C° 0 mm 3 mps 760 mmHg 47%
    09:00 +17°C° 0 mm 3 mps 760 mmHg 44%
    10:00 +19°C° 0 mm 3 mps 760 mmHg 40%
    11:00 +21°C° 0 mm 3 mps 760 mmHg 37%
    12:00 +22°C° 0 mm 3 mps 760 mmHg 35%
    13:00 +24°C° 0 mm 3 mps 760 mmHg 33%
    14:00 +24°C° 0 mm 3 mps 759 mmHg 32%
    15:00 +24°C° 0 mm 3 mps 759 mmHg 35%
    16:00 +23°C° 0 mm 2 mps 759 mmHg 38%
    17:00 +21°C° 0 mm 2 mps 759 mmHg 41%
    18:00 +20°C° 0 mm 2 mps 759 mmHg 43%
    19:00 +18°C° 0 mm 2 mps 759 mmHg 46%
    20:00 +17°C° 0 mm 3 mps 759 mmHg 49%
    21:00 +17°C° 0 mm 3 mps 759 mmHg 49%
    22:00 +16°C° 0 mm 3 mps 759 mmHg 50%
    23:00 +16°C° 0 mm 3 mps 759 mmHg 51%

    Tomorrow, 17 October, Wednesday

    Time Temperature Precipitation Wind Pressure Humidity
    00:00 +16°C° 0 mm 3 mps 759 mmHg 52%
    01:00 +16°C° 0 mm 3 mps 759 mmHg 53%
    02:00 +16°C° 0 mm 3 mps 759 mmHg 54%
    03:00 +14°C° 0 mm 3 mps 759 mmHg 56%
    04:00 +14°C° 0 mm 3 mps 758 mmHg 58%
    05:00 +14°C° 0 mm 3 mps 758 mmHg 59%
    06:00 +14°C° 0 mm 3 mps 758 mmHg 59%
    07:00 +15°C° 0 mm 4 mps 758 mmHg 58%
    08:00 +17°C° 0 mm 4 mps 758 mmHg 58%
    09:00 +18°C° 0 mm 4 mps 758 mmHg 55%
    10:00 +20°C° 0 mm 4 mps 758 mmHg 52%
    11:00 +22°C° 0 mm 4 mps 758 mmHg 50%
    12:00 +23°C° 0 mm 4 mps 758 mmHg 48%
    13:00 +23°C° 0 mm 4 mps 757 mmHg 45%
    14:00 +25°C° 0 mm 4 mps 757 mmHg 43%
    15:00 +23°C° 0 mm 4 mps 757 mmHg 46%
    16:00 +24°C° 0 mm 3 mps 757 mmHg 49%
    17:00 +22°C° 0 mm 3 mps 757 mmHg 52%
    18:00 +21°C° 0 mm 3 mps 757 mmHg 56%
    19:00 +19°C° 0 mm 3 mps 757 mmHg 61%
    20:00 +18°C° 0 mm 3 mps 757 mmHg 65%
    21:00 +17°C° 0 mm 3 mps 757 mmHg 68%
    22:00 +17°C° 0 mm 3 mps 757 mmHg 70%
    23:00 +16°C° 0 mm 2 mps 757 mmHg 73%

    Day after tomorrow, 18 October, Thursday

    Time Temperature Precipitation Wind Pressure Humidity
    00:00 +16°C° 0 mm 3 mps 757 mmHg 73%
    01:00 +16°C° 0 mm 3 mps 757 mmHg 73%
    02:00 +14°C° 0 mm 3 mps 757 mmHg 73%
    03:00 +14°C° 0 mm 3 mps 757 mmHg 73%
    04:00 +14°C° 0 mm 3 mps 756 mmHg 74%
    05:00 +14°C° 0 mm 3 mps 756 mmHg 74%
    06:00 +14°C° 0 mm 3 mps 756 mmHg 72%
    07:00 +16°C° 0 mm 3 mps 756 mmHg 70%
    08:00 +15°C° 0 mm 4 mps 756 mmHg 68%
    09:00 +18°C° 0 mm 4 mps 756 mmHg 62%
    10:00 +20°C° 0 mm 4 mps 756 mmHg 56%
    11:00 +21°C° 0 mm 4 mps 756 mmHg 50%
    12:00 +22°C° 0 mm 4 mps 755 mmHg 47%
    13:00 +24°C° 0 mm 3 mps 755 mmHg 45%
    14:00 +25°C° 0 mm 3 mps 755 mmHg 42%
    15:00 +24°C° 0 mm 3 mps 755 mmHg 45%
    16:00 +23°C° 0 mm 2 mps 754 mmHg 47%
    17:00 +21°C° 0 mm 2 mps 754 mmHg 50%
    18:00 +20°C° 0 mm 2 mps 754 mmHg 52%
    19:00 +20°C° 0 mm 2 mps 755 mmHg 55%
    20:00 +19°C° 0 mm 2 mps 755 mmHg 57%
    21:00 +18°C° 0 mm 2 mps 755 mmHg 59%
    22:00 +19°C° 0 mm 1 mps 755 mmHg 61%
    23:00 +18°C° 0 mm 1 mps 755 mmHg 63%

    19 October, Friday

    Time Temperature Precipitation Wind Pressure Humidity
    00:00 +18°C° 0 mm 1 mps 755 mmHg 65%
    01:00 +18°C° 0 mm 1 mps 755 mmHg 67%
    02:00 +16°C° 0 mm 1 mps 755 mmHg 69%
    03:00 +16°C° 0 mm 1 mps 755 mmHg 70%
    04:00 +16°C° 0 mm 1 mps 755 mmHg 71%
    05:00 +15°C° 0 mm 1 mps 754 mmHg 72%
    06:00 +16°C° 0 mm 1 mps 755 mmHg 70%
    07:00 +18°C° 0 mm 1 mps 755 mmHg 67%
    08:00 +18°C° 0 mm 1 mps 755 mmHg 65%
    09:00 +20°C° 0 mm 1 mps 755 mmHg 58%
    10:00 +22°C° 0 mm 1 mps 755 mmHg 51%
    11:00 +23°C° 0 mm 1 mps 755 mmHg 44%
    12:00 +24°C° 0 mm 1 mps 754 mmHg 42%
    13:00 +25°C° 0 mm 1 mps 754 mmHg 39%
    14:00 +25°C° 0 mm 1 mps 754 mmHg 37%
    15:00 +25°C° 0 mm 1 mps 754 mmHg 39%
    16:00 +24°C° 0 mm 1 mps 754 mmHg 42%
    17:00 +23°C° 0 mm 1 mps 754 mmHg 44%
    18:00 +22°C° 0 mm 1 mps 754 mmHg 46%
    19:00 +21°C° 0 mm 1 mps 754 mmHg 49%
    20:00 +20°C° 0 mm 1 mps 755 mmHg 51%
    21:00 +18°C° 0 mm 2 mps 755 mmHg 53%
    22:00 +18°C° 0 mm 2 mps 755 mmHg 55%
    23:00 +17°C° 0 mm 2 mps 755 mmHg 57%

    20 October, Saturday

    Time Temperature Precipitation Wind Pressure Humidity
    00:00 +17°C° 0 mm 2 mps 755 mmHg 60%
    01:00 +16°C° 0 mm 2 mps 755 mmHg 63%
    02:00 +16°C° 0 mm 2 mps 755 mmHg 65%
    03:00 +16°C° 0 mm 2 mps 755 mmHg 67%
    04:00 +15°C° 0 mm 2 mps 755 mmHg 70%
    05:00 +14°C° 0 mm 3 mps 755 mmHg 72%
    06:00 +14°C° 0.1 mm 3 mps 756 mmHg 71%
    07:00 +16°C° 0.1 mm 3 mps 756 mmHg 70%
    08:00 +16°C° 0.1 mm 3 mps 756 mmHg 69%
    09:00 +17°C° 0.1 mm 3 mps 756 mmHg 65%
    10:00 +18°C° 0.1 mm 3 mps 756 mmHg 61%
    11:00 +19°C° 0.1 mm 3 mps 757 mmHg 56%
    12:00 +20°C° 0 mm 3 mps 756 mmHg 55%
    13:00 +20°C° 0 mm 3 mps 756 mmHg 53%
    14:00 +20°C° 0 mm 3 mps 756 mmHg 52%
    15:00 +20°C° 0 mm 3 mps 756 mmHg 54%
    16:00 +19°C° 0 mm 3 mps 756 mmHg 56%
    17:00 +19°C° 0 mm 2 mps 756 mmHg 58%
    18:00 +18°C° 0 mm 2 mps 757 mmHg 61%
    19:00 +17°C° 0 mm 3 mps 757 mmHg 65%
    20:00 +16°C° 0 mm 3 mps 757 mmHg 68%
    21:00 +16°C° 0 mm 3 mps 757 mmHg 70%
    22:00 +14°C° 0 mm 3 mps 757 mmHg 72%
    23:00 +14°C° 0 mm 3 mps 758 mmHg 74%

    21 October, Sunday

    Time Temperature Precipitation Wind Pressure Humidity
    00:00 +13°C° 0 mm 3 mps 758 mmHg 75%
    01:00 +13°C° 0 mm 3 mps 758 mmHg 76%
    02:00 +13°C° 0 mm 3 mps 757 mmHg 77%
    03:00 +13°C° 0 mm 3 mps 758 mmHg 77%
    04:00 +13°C° 0 mm 3 mps 758 mmHg 78%
    05:00 +12°C° 0 mm 3 mps 758 mmHg 79%
    06:00 +13°C° 0 mm 3 mps 758 mmHg 77%
    07:00 +13°C° 0 mm 3 mps 758 mmHg 75%
    08:00 +14°C° 0 mm 3 mps 758 mmHg 74%
    09:00 +16°C° 0 mm 3 mps 758 mmHg 69%
    10:00 +17°C° 0 mm 3 mps 758 mmHg 64%
    11:00 +18°C° 0 mm 3 mps 757 mmHg 59%
    12:00 +18°C° 0.2 mm 3 mps 757 mmHg 59%
    13:00 +18°C° 0.2 mm 3 mps 757 mmHg 58%
    14:00 +18°C° 0.2 mm 3 mps 756 mmHg 58%
    15:00 +18°C° 0.2 mm 3 mps 756 mmHg 60%
    16:00 +17°C° 0.2 mm 3 mps 756 mmHg 61%
    17:00 +17°C° 0.2 mm 2 mps 756 mmHg 63%
    18:00 +16°C° 0.1 mm 3 mps 757 mmHg 64%
    19:00 +14°C° 0.1 mm 3 mps 757 mmHg 66%
    20:00 +14°C° 0.1 mm 4 mps 757 mmHg 67%
    21:00 +13°C° 0.1 mm 4 mps 757 mmHg 68%
    22:00 +13°C° 0.1 mm 4 mps 757 mmHg 69%
    23:00 +12°C° 0.1 mm 5 mps 758 mmHg 71%
    Show more